| time (UTC) | temp F | wind direction | speed MPH | gust MPH | rain 1hr in | rain 24hr in | rain mn in | humidity % | barometer mb |
| 20260508153401 | 86 | 294 | 0.0 | 3.0 | 0.00 | 0.00 | 0.00 | 69 | 1013.0 |
| 20260508152400 | 86 | 301 | 2.0 | 3.0 | 0.00 | 0.00 | 0.00 | 68 | 1013.0 |
| 20260508151359 | 86 | 251 | 1.0 | 2.0 | 0.00 | 0.00 | 0.00 | 68 | 1013.0 |
| 20260508150358 | 86 | 264 | 1.0 | 3.0 | 0.00 | 0.00 | 0.00 | 70 | 1013.0 |
| 20260508145357 | 84 | 38 | 2.0 | 4.0 | 0.00 | 0.00 | 0.00 | 74 | 1013.0 |
| 20260508144356 | 83 | 301 | 1.0 | 3.0 | 0.00 | 0.00 | 0.00 | 78 | 1013.0 |
| 20260508143355 | 83 | 252 | 1.0 | 3.0 | 0.00 | 0.00 | 0.00 | 79 | 1013.3 |
| 20260508142323 | 83 | 313 | 0.0 | 4.0 | 0.00 | 0.00 | 0.00 | 79 | 1013.0 |
| 20260508141322 | 82 | 315 | 1.0 | 4.0 | 0.00 | 0.00 | 0.00 | 82 | 1013.0 |
| 20260508140321 | 81 | 293 | 1.0 | 4.0 | 0.00 | 0.00 | 0.00 | 83 | 1013.0 |
| 20260508135321 | 81 | 301 | 2.0 | 4.0 | 0.00 | 0.00 | 0.00 | 84 | 1013.3 |
| 20260508134320 | 81 | 298 | 1.0 | 5.0 | 0.00 | 0.00 | 0.00 | 85 | 1013.0 |
| 20260508133319 | 80 | 292 | 1.0 | 5.0 | 0.00 | 0.00 | 0.00 | 87 | 1013.0 |
| 20260508132318 | 79 | 305 | 2.0 | 3.0 | 0.00 | 0.00 | 0.00 | 88 | 1013.0 |
| 20260508131317 | 79 | 290 | 1.0 | 3.0 | 0.00 | 0.00 | 0.00 | 89 | 1013.0 |
| 20260508130245 | 79 | 289 | 1.0 | 3.0 | 0.00 | 0.00 | 0.00 | 90 | 1013.0 |
| 20260508125244 | 78 | 272 | 1.0 | 3.0 | 0.00 | 0.00 | 0.00 | 91 | 1012.7 |
| 20260508124243 | 78 | 276 | 1.0 | 1.0 | 0.00 | 0.00 | 0.00 | 92 | 1013.0 |
| 20260508123242 | 77 | 270 | 0.0 | 1.0 | 0.00 | 0.00 | 0.00 | 94 | 1012.7 |
| 20260508122210 | 76 | 301 | 1.0 | 1.0 | 0.00 | 0.00 | 0.00 | 95 | 1012.7 |
| 20260508121209 | 75 | 269 | 0.0 | 1.0 | 0.00 | 0.00 | 0.00 | 95 | 1012.7 |
| 20260508120208 | 75 | 255 | 1.0 | 1.0 | 0.00 | 0.00 | 0.00 | 96 | 1012.7 |
| 20260508115136 | 74 | 278 | 1.0 | 1.0 | 0.00 | 0.00 | 0.00 | 97 | 1012.3 |
| 20260508114136 | 73 | 283 | 0.0 | 0.0 | 0.00 | 0.00 | 0.00 | 97 | 1012.3 |
| 20260508113135 | 72 | 284 | 0.0 | 0.0 | 0.00 | 0.00 | 0.00 | 97 | 1012.3 |
| 20260508112134 | 72 | 283 | 0.0 | 0.0 | 0.00 | 0.00 | 0.00 | 97 | 1012.0 |
| 20260508111133 | 71 | 284 | 0.0 | 0.0 | 0.00 | 0.00 | 0.00 | 98 | 1012.0 |
| 20260508110132 | 71 | 284 | 0.0 | 0.0 | 0.00 | 0.00 | 0.00 | 98 | 1012.0 |
| 20260508105132 | 70 | 283 | 0.0 | 0.0 | 0.00 | 0.00 | 0.00 | 97 | 1012.0 |
| 20260508104130 | 70 | 283 | 0.0 | 0.0 | 0.00 | 0.00 | 0.00 | 97 | 1011.6 |
| 20260508103058 | 70 | 284 | 0.0 | 0.0 | 0.00 | 0.00 | 0.00 | 97 | 1011.7 |
| 20260508101955 | 69 | 284 | 0.0 | 0.0 | 0.00 | 0.00 | 0.00 | 97 | 1011.3 |
| 20260508100954 | 70 | 283 | 0.0 | 0.0 | 0.00 | 0.00 | 0.00 | 97 | 1011.3 |
| 20260508095953 | 70 | 284 | 0.0 | 0.0 | 0.00 | 0.00 | 0.00 | 97 | 1011.3 |
| 20260508094952 | 69 | 283 | 0.0 | 0.0 | 0.00 | 0.00 | 0.00 | 97 | 1011.0 |
| 20260508093920 | 70 | 283 | 0.0 | 0.0 | 0.00 | 0.00 | 0.00 | 97 | 1011.0 |
| 20260508092918 | 70 | 284 | 0.0 | 0.0 | 0.00 | 0.00 | 0.00 | 96 | 1011.0 |
| 20260508091917 | 70 | 283 | 0.0 | 0.0 | 0.00 | 0.00 | 0.00 | 96 | 1011.0 |
| 20260508090916 | 70 | 283 | 0.0 | 0.0 | 0.00 | 0.00 | 0.00 | 96 | 1011.0 |
| 20260508085915 | 70 | 284 | 0.0 | 0.0 | 0.00 | 0.00 | 0.00 | 96 | 1011.0 |
| 20260508084915 | 70 | 283 | 0.0 | 0.0 | 0.00 | 0.00 | 0.00 | 95 | 1011.0 |
| 20260508083914 | 71 | 284 | 0.0 | 0.0 | 0.00 | 0.00 | 0.00 | 96 | 1011.0 |
| 20260508082842 | 71 | 284 | 0.0 | 0.0 | 0.00 | 0.00 | 0.00 | 96 | 1011.0 |
| 20260508081810 | 72 | 283 | 0.0 | 0.0 | 0.00 | 0.00 | 0.00 | 95 | 1011.0 |
| 20260508080809 | 72 | 284 | 0.0 | 0.0 | 0.00 | 0.00 | 0.00 | 95 | 1011.0 |
| 20260508075808 | 72 | 284 | 0.0 | 0.0 | 0.00 | 0.00 | 0.00 | 95 | 1011.0 |
| 20260508074807 | 72 | 284 | 0.0 | 1.0 | 0.00 | 0.00 | 0.00 | 95 | 1011.0 |
| 20260508073806 | 72 | 283 | 0.0 | 0.0 | 0.00 | 0.00 | 0.00 | 94 | 1011.0 |
| 20260508072805 | 72 | 284 | 0.0 | 0.0 | 0.00 | 0.00 | 0.00 | 94 | 1011.0 |
| 20260508071804 | 72 | 284 | 0.0 | 0.0 | 0.00 | 0.00 | 0.00 | 93 | 1011.3 |
| 20260508070803 | 72 | 284 | 0.0 | 0.0 | 0.00 | 0.00 | 0.00 | 93 | 1011.3 |
| 20260508065802 | 72 | 284 | 0.0 | 1.0 | 0.00 | 0.00 | 0.00 | 92 | 1011.3 |
| 20260508064729 | 72 | 283 | 0.0 | 1.0 | 0.00 | 0.00 | 0.00 | 92 | 1011.3 |
| 20260508063729 | 73 | 284 | 0.0 | 1.0 | 0.00 | 0.00 | 0.00 | 92 | 1011.3 |
| 20260508062728 | 73 | 283 | 0.0 | 1.0 | 0.00 | 0.00 | 0.00 | 92 | 1011.3 |
| 20260508061727 | 73 | 284 | 0.0 | 0.0 | 0.00 | 0.00 | 0.00 | 91 | 1011.3 |
| 20260508060726 | 73 | 283 | 0.0 | 0.0 | 0.00 | 0.00 | 0.00 | 91 | 1011.3 |
| 20260508055654 | 73 | 283 | 0.0 | 0.0 | 0.00 | 0.00 | 0.00 | 90 | 1011.3 |
| 20260508054551 | 74 | 284 | 0.0 | 0.0 | 0.00 | 0.00 | 0.00 | 89 | 1011.7 |
| 20260508053550 | 74 | 271 | 0.0 | 1.0 | 0.00 | 0.00 | 0.00 | 88 | 1011.3 |
| 20260508052549 | 74 | 271 | 0.0 | 1.0 | 0.00 | 0.00 | 0.00 | 87 | 1011.7 |
| 20260508051548 | 74 | 312 | 0.0 | 0.0 | 0.00 | 0.00 | 0.00 | 87 | 1011.7 |
| 20260508050547 | 75 | 326 | 0.0 | 0.0 | 0.00 | 0.00 | 0.00 | 86 | 1011.7 |
| 20260508045515 | 75 | 326 | 0.0 | 1.0 | 0.00 | 0.00 | 0.00 | 85 | 1011.7 |
| 20260508044515 | 76 | 326 | 0.0 | 1.0 | 0.00 | 0.00 | 0.00 | 84 | 1011.7 |
| 20260508043442 | 76 | 293 | 1.0 | 2.0 | 0.00 | 0.00 | 0.00 | 83 | 1011.7 |
| 20260508042410 | 76 | 295 | 1.0 | 2.0 | 0.00 | 0.00 | 0.00 | 82 | 1011.7 |
| 20260508041409 | 77 | 265 | 1.0 | 2.0 | 0.00 | 0.00 | 0.00 | 81 | 1011.7 |
| 20260508040409 | 77 | 311 | 0.0 | 2.0 | 0.00 | 0.00 | 0.00 | 80 | 1011.7 |
| 20260508035408 | 77 | 284 | 0.0 | 2.0 | 0.00 | 0.00 | 0.00 | 79 | 1011.7 |
| 20260508034407 | 77 | 297 | 1.0 | 4.0 | 0.00 | 0.00 | 0.00 | 78 | 1011.7 |
| 20260508033406 | 78 | 317 | 1.0 | 4.0 | 0.00 | 0.00 | 0.00 | 77 | 1011.7 |
| 20260508032334 | 78 | 309 | 1.0 | 3.0 | 0.00 | 0.00 | 0.00 | 76 | 1011.7 |
| 20260508031230 | 78 | 301 | 1.0 | 2.0 | 0.00 | 0.00 | 0.00 | 75 | 1011.3 |
| 20260508030229 | 78 | 290 | 1.0 | 2.0 | 0.00 | 0.00 | 0.00 | 74 | 1011.3 |
| 20260508025228 | 79 | 286 | 1.0 | 2.0 | 0.00 | 0.00 | 0.00 | 73 | 1011.3 |
| 20260508024228 | 79 | 289 | 1.0 | 2.0 | 0.00 | 0.00 | 0.00 | 72 | 1011.3 |
| 20260508023227 | 79 | 295 | 1.0 | 2.0 | 0.00 | 0.00 | 0.00 | 70 | 1011.0 |
| 20260508022155 | 79 | 293 | 1.0 | 2.0 | 0.00 | 0.00 | 0.00 | 69 | 1011.0 |
| 20260508021122 | 80 | 290 | 1.0 | 3.0 | 0.00 | 0.00 | 0.00 | 66 | 1010.6 |
| 20260508020121 | 80 | 296 | 1.0 | 3.0 | 0.00 | 0.00 | 0.00 | 64 | 1010.6 |
| 20260508015120 | 81 | 307 | 1.0 | 3.0 | 0.00 | 0.00 | 0.00 | 60 | 1010.6 |
| 20260508014120 | 81 | 280 | 1.0 | 2.0 | 0.00 | 0.00 | 0.00 | 57 | 1010.6 |
| 20260508013119 | 82 | 283 | 1.0 | 3.0 | 0.00 | 0.00 | 0.00 | 54 | 1010.6 |
| 20260508012015 | 82 | 285 | 1.0 | 3.0 | 0.00 | 0.00 | 0.00 | 50 | 1010.3 |
| 20260508011014 | 83 | 285 | 1.0 | 3.0 | 0.00 | 0.00 | 0.00 | 49 | 1010.3 |
| 20260508010013 | 83 | 288 | 1.0 | 1.0 | 0.00 | 0.00 | 0.00 | 48 | 1010.3 |
| 20260508005012 | 83 | 288 | 1.0 | 1.0 | 0.00 | 0.00 | 0.00 | 46 | 1010.3 |
| 20260508004011 | 84 | 285 | 1.0 | 2.0 | 0.00 | 0.00 | 0.00 | 44 | 1010.3 |
| 20260508003011 | 85 | 271 | 1.0 | 2.0 | 0.00 | 0.00 | 0.00 | 43 | 1009.9 |
| 20260508002010 | 85 | 301 | 1.0 | 2.0 | 0.00 | 0.00 | 0.00 | 42 | 1009.9 |
| 20260508001009 | 86 | 291 | 1.0 | 3.0 | 0.00 | 0.00 | 0.00 | 41 | 1009.9 |
| 20260508000008 | 87 | 284 | 1.0 | 2.0 | 0.00 | 0.00 | 0.00 | 40 | 1009.9 |
| 20260507235007 | 88 | 281 | 1.0 | 2.0 | 0.00 | 0.00 | 0.00 | 38 | 1009.9 |
| 20260507234007 | 89 | 274 | 1.0 | 3.0 | 0.00 | 0.00 | 0.00 | 36 | 1009.6 |
| 20260507232935 | 89 | 282 | 1.0 | 3.0 | 0.00 | 0.00 | 0.00 | 34 | 1009.9 |
| 20260507231934 | 90 | 269 | 1.0 | 4.0 | 0.00 | 0.00 | 0.00 | 33 | 1009.6 |
| 20260507230901 | 91 | 318 | 2.0 | 4.0 | 0.00 | 0.00 | 0.00 | 33 | 1009.6 |
| 20260507225727 | 91 | 261 | 1.0 | 4.0 | 0.00 | 0.00 | 0.00 | 32 | 1009.6 |
| 20260507224726 | 91 | 276 | 1.0 | 4.0 | 0.00 | 0.00 | 0.00 | 32 | 1009.6 |
| 20260507223726 | 92 | 292 | 2.0 | 4.0 | 0.00 | 0.00 | 0.00 | 31 | 1009.6 |
| 20260507222725 | 92 | 276 | 2.0 | 6.0 | 0.00 | 0.00 | 0.00 | 31 | 1009.6 |
| 20260507221724 | 93 | 302 | 2.0 | 7.0 | 0.00 | 0.00 | 0.00 | 31 | 1009.6 |
| 20260507220652 | 94 | 295 | 2.0 | 7.0 | 0.00 | 0.00 | 0.00 | 32 | 1009.6 |
| 20260507215651 | 94 | 278 | 1.0 | 9.0 | 0.00 | 0.00 | 0.00 | 36 | 1009.6 |
| 20260507214650 | 94 | 311 | 3.0 | 9.0 | 0.00 | 0.00 | 0.00 | 36 | 1009.6 |
| 20260507213649 | 94 | 294 | 3.0 | 6.0 | 0.00 | 0.00 | 0.00 | 37 | 1009.6 |
| 20260507212648 | 94 | 264 | 2.0 | 6.0 | 0.00 | 0.00 | 0.00 | 39 | 1009.6 |
| 20260507211647 | 95 | 245 | 1.0 | 6.0 | 0.00 | 0.00 | 0.00 | 37 | 1009.6 |
| 20260507210646 | 95 | 233 | 1.0 | 5.0 | 0.00 | 0.00 | 0.00 | 37 | 1009.6 |
| 20260507205646 | 95 | 315 | 2.0 | 5.0 | 0.00 | 0.00 | 0.00 | 36 | 1009.6 |
| 20260507204645 | 95 | 254 | 1.0 | 4.0 | 0.00 | 0.00 | 0.00 | 36 | 1009.6 |
| 20260507203643 | 95 | 271 | 1.0 | 6.0 | 0.00 | 0.00 | 0.00 | 38 | 1009.6 |
| 20260507202643 | 95 | 302 | 1.0 | 6.0 | 0.00 | 0.00 | 0.00 | 37 | 1010.0 |
| 20260507201642 | 95 | 273 | 2.0 | 6.0 | 0.00 | 0.00 | 0.00 | 35 | 1010.0 |
| 20260507200640 | 95 | 299 | 3.0 | 7.0 | 0.00 | 0.00 | 0.00 | 36 | 1010.3 |
| 20260507195639 | 96 | 305 | 3.0 | 7.0 | 0.00 | 0.00 | 0.00 | 34 | 1010.3 |
| 20260507194638 | 96 | 257 | 2.0 | 6.0 | 0.00 | 0.00 | 0.00 | 33 | 1010.3 |
| 20260507193637 | 97 | 306 | 2.0 | 6.0 | 0.00 | 0.00 | 0.00 | 33 | 1010.6 |
| 20260507192637 | 97 | 235 | 3.0 | 8.0 | 0.00 | 0.00 | 0.00 | 34 | 1010.3 |
| 20260507191636 | 96 | 253 | 2.0 | 8.0 | 0.00 | 0.00 | 0.00 | 35 | 1010.6 |
| 20260507190635 | 96 | 279 | 2.0 | 8.0 | 0.00 | 0.00 | 0.00 | 34 | 1010.6 |
| 20260507185603 | 96 | 237 | 2.0 | 10.0 | 0.00 | 0.00 | 0.00 | 36 | 1011.0 |
| 20260507184602 | 96 | 204 | 2.0 | 10.0 | 0.00 | 0.00 | 0.00 | 36 | 1011.3 |
| 20260507183601 | 95 | 152 | 2.0 | 6.0 | 0.00 | 0.00 | 0.00 | 36 | 1011.3 |
| 20260507182600 | 95 | 213 | 2.0 | 5.0 | 0.00 | 0.00 | 0.00 | 37 | 1011.7 |
| 20260507181559 | 94 | 307 | 2.0 | 8.0 | 0.00 | 0.00 | 0.00 | 38 | 1012.0 |
| 20260507180559 | 94 | 257 | 2.0 | 10.0 | 0.00 | 0.00 | 0.00 | 40 | 1012.0 |
| 20260507175557 | 94 | 183 | 4.0 | 11.0 | 0.00 | 0.00 | 0.00 | 41 | 1012.0 |
| 20260507174525 | 93 | 246 | 3.0 | 11.0 | 0.00 | 0.00 | 0.00 | 43 | 1012.3 |
| 20260507173524 | 93 | 246 | 3.0 | 8.0 | 0.00 | 0.00 | 0.00 | 43 | 1012.3 |
| 20260507172523 | 92 | 270 | 2.0 | 8.0 | 0.00 | 0.00 | 0.00 | 47 | 1012.3 |
| 20260507171522 | 93 | 283 | 2.0 | 6.0 | 0.00 | 0.00 | 0.00 | 47 | 1012.3 |
| 20260507170521 | 92 | 279 | 3.0 | 7.0 | 0.00 | 0.00 | 0.00 | 46 | 1012.3 |
| 20260507165520 | 92 | 240 | 2.0 | 5.0 | 0.00 | 0.00 | 0.00 | 47 | 1012.3 |
| 20260507164520 | 92 | 268 | 2.0 | 6.0 | 0.00 | 0.00 | 0.00 | 49 | 1012.3 |
| 20260507163519 | 92 | 164 | 3.0 | 9.0 | 0.00 | 0.00 | 0.00 | 49 | 1012.3 |
| 20260507162518 | 91 | 163 | 4.0 | 9.0 | 0.00 | 0.00 | 0.00 | 53 | 1012.3 |
| 20260507161517 | 91 | 254 | 1.0 | 8.0 | 0.00 | 0.00 | 0.00 | 54 | 1012.7 |
| 20260507160445 | 90 | 205 | 2.0 | 10.0 | 0.00 | 0.00 | 0.00 | 57 | 1012.7 |
| 20260507155444 | 90 | 210 | 2.0 | 10.0 | 0.00 | 0.00 | 0.00 | 57 | 1012.7 |
| 20260507154443 | 89 | 211 | 2.0 | 6.0 | 0.00 | 0.00 | 0.00 | 59 | 1013.0 |